Aéroclub Castres-Mazamet
ACCUEIL




METAR
LFCK 200430Z AUTO 26003KT 9000 -RA SCT006/// BKN011/// BKN046/// ///TCU 15/14 Q1022



Liens utiles
F.F.A
Météo France
OLIVIA
SIA
D.G.A.C
Bienvenue à l'aéroclub de Castres-Mazamet


               





Actualités

 Assemblée Générale   
Publié le 06-Jan-2019    
L'AG du club aura lieu le vendredi 15 février 2019


Voir plus